ITY793 RJTT-LIRF

Flight info

Callsign ITY793
Flight time N/A
Altitude 32000
Route BEKLA Y18 PIGAP Y182 BIDIK Y16 SAPRA G585 SEL Y697 AGAVO/K0870S1040 A591 IKEKA W4 HCH W200 DOVIV W55 PAMRU W34 VYK B215 LEBOM W104 VEXEB W47 IDSOT W48 LAVOM W48 DKO W66 NUKTI B215 FKG A368 SARIN/K0870F360 N161 UNABO N161 ARKAM N161 GASBI/N0480F360 N161 LEYLA N644 ADEKI DCT LAGAS DCT NOLGA/N0480F380 UG261 TBN UW71 CRM UM688 EKSUK UL852 NEGEM Q8 DOLAP/N0480F400 DCT REMSO DCT VELIT DCT VELUG/N0480F410 DCT ASPIR DCT MOPUV
Aircraft A339/H-SDE2E3FGHIJ4J5P2RWXYZ/LB1D1G1

Departure

Time 2026-05-08 04:05
Airport Tokyo Haneda International Airport (RJTT)

Arrival

Time N/A
Airport Rome–Fiumicino Leonardo da Vinci International Airport (LIRF)
Time Latitude Longitude Altitude Speed Heading
2026-05-08 03:26 35.54801 139.76602 56 ft 0 kts 149°
2026-05-08 03:46 35.54806 139.76598 27 ft 1 kts 149°
2026-05-08 03:46 35.54813 139.76593 28 ft 1 kts 149°
2026-05-08 03:46 35.54820 139.76589 27 ft 1 kts 149°
2026-05-08 03:46 35.54826 139.76584 26 ft 1 kts 149°
2026-05-08 03:47 35.54832 139.76579 26 ft 1 kts 149°
2026-05-08 03:47 35.54839 139.76575 26 ft 1 kts 149°
2026-05-08 03:47 35.54845 139.76570 26 ft 1 kts 149°
2026-05-08 03:47 35.54851 139.76566 27 ft 1 kts 149°
2026-05-08 03:48 35.54858 139.76562 28 ft 1 kts 139°
2026-05-08 03:48 35.54865 139.76556 27 ft 1 kts 122°
2026-05-08 03:48 35.54869 139.76550 26 ft 1 kts 112°
2026-05-08 03:48 35.54870 139.76547 26 ft 1 kts 107°
2026-05-08 03:49 35.54872 139.76542 26 ft 2 kts 100°
2026-05-08 03:49 35.54874 139.76534 25 ft 1 kts 86°
2026-05-08 03:49 35.54876 139.76532 28 ft 1 kts 75°
2026-05-08 03:49 35.54878 139.76539 28 ft 1 kts 73°
2026-05-08 03:50 35.54881 139.76546 28 ft 1 kts 64°
2026-05-08 03:50 35.54882 139.76547 28 ft 0 kts 59°
2026-05-08 03:56 35.54887 139.76556 28 ft 4 kts 59°
2026-05-08 03:56 35.54904 139.76591 28 ft 5 kts 58°
2026-05-08 03:56 35.54923 139.76628 28 ft 5 kts 58°
2026-05-08 03:56 35.54942 139.76665 28 ft 5 kts 58°
2026-05-08 03:57 35.54960 139.76703 28 ft 5 kts 60°
2026-05-08 03:57 35.54976 139.76741 28 ft 5 kts 62°
2026-05-08 03:57 35.54993 139.76780 28 ft 5 kts 62°
2026-05-08 03:57 35.55009 139.76816 28 ft 5 kts 60°
2026-05-08 03:58 35.55028 139.76853 28 ft 5 kts 59°
2026-05-08 03:58 35.55046 139.76890 28 ft 5 kts 59°
2026-05-08 03:58 35.55063 139.76928 28 ft 5 kts 60°
2026-05-08 03:58 35.55080 139.76966 27 ft 5 kts 61°
2026-05-08 03:59 35.55098 139.77004 27 ft 5 kts 60°
2026-05-08 03:59 35.55115 139.77042 28 ft 5 kts 60°
2026-05-08 03:59 35.55133 139.77080 28 ft 5 kts 60°
2026-05-08 03:59 35.55151 139.77117 28 ft 5 kts 59°
2026-05-08 04:00 35.55169 139.77155 28 ft 5 kts 59°
2026-05-08 04:00 35.55181 139.77179 28 ft 2 kts 59°
2026-05-08 04:00 35.55182 139.77181 28 ft 0 kts 59°
2026-05-08 04:00 35.55200 139.77200 28 ft 5 kts 34°
2026-05-08 04:01 35.55230 139.77195 28 ft 3 kts 342°
2026-05-08 04:01 35.55250 139.77180 28 ft 3 kts 331°
2026-05-08 04:01 35.55271 139.77167 28 ft 3 kts 331°
2026-05-08 04:01 35.55291 139.77153 28 ft 3 kts 331°
2026-05-08 04:02 35.55314 139.77137 27 ft 5 kts 331°
2026-05-08 04:02 35.55348 139.77114 28 ft 7 kts 331°
2026-05-08 04:02 35.55392 139.77083 28 ft 8 kts 330°
2026-05-08 04:02 35.55428 139.77057 27 ft 4 kts 329°
2026-05-08 04:03 35.55455 139.77043 28 ft 4 kts 341°
2026-05-08 04:03 35.55541 139.77079 28 ft 0 kts 31°
2026-05-08 04:03 35.55553 139.77089 28 ft 5 kts 34°
2026-05-08 04:04 35.55593 139.77123 28 ft 8 kts 34°
2026-05-08 04:04 35.55599 139.77189 28 ft 9 kts 111°
2026-05-08 04:04 35.55570 139.77213 28 ft 4 kts 147°
2026-05-08 04:04 35.55510 139.77257 28 ft 25 kts 150°
2026-05-08 04:05 35.55149 139.77506 28 ft 93 kts 150°
2026-05-08 04:05 35.54469 139.77987 29 ft 144 kts 150°
2026-05-08 04:05 35.53489 139.78679 176 ft 170 kts 152°
2026-05-08 04:05 35.52488 139.79315 887 ft 161 kts 158°
2026-05-08 04:06 35.51440 139.79907 1308 ft 170 kts 158°
2026-05-08 04:06 35.50377 139.80661 1674 ft 184 kts 154°
2026-05-08 04:06 35.49286 139.81537 2065 ft 190 kts 154°
2026-05-08 04:06 35.48121 139.82265 2469 ft 186 kts 174°
2026-05-08 04:07 35.46901 139.82159 2899 ft 177 kts 206°
2026-05-08 04:07 35.45979 139.81193 3258 ft 183 kts 238°
2026-05-08 04:07 35.45576 139.79631 3427 ft 203 kts 256°
2026-05-08 04:07 35.45283 139.77853 3575 ft 222 kts 255°
2026-05-08 04:08 35.45014 139.75925 3784 ft 236 kts 266°
2026-05-08 04:08 35.45341 139.73972 4457 ft 236 kts 289°
2026-05-08 04:08 35.46303 139.72317 4909 ft 248 kts 313°
2026-05-08 04:08 35.47456 139.71449 5234 ft 258 kts 335°
2026-05-08 04:09 35.49247 139.71032 5702 ft 265 kts 349°
2026-05-08 04:09 35.51088 139.70762 6121 ft 267 kts 348°
2026-05-08 04:09 35.52890 139.70466 6786 ft 257 kts 346°
2026-05-08 04:09 35.54620 139.70153 7378 ft 248 kts 345°
2026-05-08 04:10 35.56248 139.69579 7755 ft 240 kts 323°
2026-05-08 04:10 35.57452 139.68266 8151 ft 226 kts 296°
2026-05-08 04:10 35.58150 139.66590 8639 ft 219 kts 287°
2026-05-08 04:10 35.58727 139.64859 9106 ft 218 kts 285°
2026-05-08 04:11 35.59320 139.63136 9566 ft 220 kts 287°
2026-05-08 04:11 35.59964 139.61412 9903 ft 224 kts 288°
2026-05-08 04:11 35.60626 139.59753 10295 ft 225 kts 289°
2026-05-08 04:11 35.61335 139.58032 10653 ft 227 kts 289°
2026-05-08 04:12 35.62056 139.56302 10996 ft 229 kts 289°
2026-05-08 04:12 35.62784 139.54554 11340 ft 231 kts 289°
2026-05-08 04:12 35.63060 139.53893 11478 ft 231 kts 289°
2026-05-08 04:12 35.64001 139.51631 11938 ft 232 kts 289°
2026-05-08 04:13 35.64255 139.51018 12045 ft 233 kts 288°
2026-05-08 04:13 35.64498 139.50432 12152 ft 234 kts 288°
2026-05-08 04:13 35.65244 139.48635 12487 ft 236 kts 288°
2026-05-08 04:13 35.65761 139.47425 12725 ft 238 kts 291°
2026-05-08 04:14 35.66699 139.45743 13073 ft 244 kts 297°
2026-05-08 04:14 35.67704 139.44046 13300 ft 250 kts 296°
2026-05-08 04:14 35.68735 139.42261 13408 ft 262 kts 296°
2026-05-08 04:14 35.69806 139.40393 13604 ft 273 kts 296°
2026-05-08 04:15 35.70928 139.38438 13688 ft 286 kts 296°
2026-05-08 04:15 35.72104 139.36391 13767 ft 300 kts 297°
2026-05-08 04:15 35.73336 139.34252 13879 ft 313 kts 297°
2026-05-08 04:15 35.74622 139.32021 14022 ft 327 kts 297°
2026-05-08 04:16 35.75938 139.29747 14692 ft 320 kts 298°
2026-05-08 04:16 35.77200 139.27589 15721 ft 303 kts 297°
2026-05-08 04:16 35.78419 139.25487 16328 ft 302 kts 297°
2026-05-08 04:16 35.79497 139.23609 16748 ft 303 kts 297°
2026-05-08 04:17 35.80720 139.21466 17068 ft 311 kts 297°
2026-05-08 04:17 35.81943 139.19222 17129 ft 318 kts 292°
2026-05-08 04:17 35.82798 139.16728 17239 ft 317 kts 279°
2026-05-08 04:17 35.83159 139.14049 17328 ft 319 kts 268°
2026-05-08 04:18 35.83062 139.11307 17424 ft 326 kts 262°
2026-05-08 04:18 35.82886 139.08479 17562 ft 336 kts 263°
2026-05-08 04:18 35.82731 139.05592 17820 ft 341 kts 263°
2026-05-08 04:18 35.82584 139.02659 18145 ft 343 kts 263°
2026-05-08 04:19 35.82444 138.99733 18545 ft 342 kts 263°
2026-05-08 04:19 35.82306 138.96810 18869 ft 344 kts 263°
2026-05-08 04:19 35.82163 138.93868 19238 ft 344 kts 263°
2026-05-08 04:19 35.82014 138.90912 19521 ft 346 kts 263°
2026-05-08 04:20 35.81872 138.88134 19809 ft 347 kts 263°
2026-05-08 04:20 35.81733 138.85320 20139 ft 349 kts 263°
2026-05-08 04:20 35.81585 138.82323 20446 ft 352 kts 263°
2026-05-08 04:20 35.81426 138.79318 20742 ft 352 kts 263°
2026-05-08 04:21 35.81268 138.76295 20943 ft 355 kts 263°
2026-05-08 04:21 35.81118 138.73261 21223 ft 355 kts 263°
2026-05-08 04:21 35.80966 138.70215 21544 ft 357 kts 263°
2026-05-08 04:21 35.80808 138.67143 21852 ft 360 kts 263°
2026-05-08 04:22 35.80650 138.64068 22262 ft 360 kts 263°
2026-05-08 04:22 35.80486 138.60972 22514 ft 364 kts 263°
2026-05-08 04:22 35.80323 138.57855 22927 ft 365 kts 263°
2026-05-08 04:22 35.80159 138.54727 23238 ft 368 kts 263°
2026-05-08 04:23 35.79992 138.51572 23557 ft 369 kts 263°
2026-05-08 04:23 35.79826 138.48466 23886 ft 371 kts 263°
2026-05-08 04:23 35.79675 138.45623 24186 ft 372 kts 263°
2026-05-08 04:23 35.79504 138.42430 24471 ft 374 kts 263°
2026-05-08 04:24 35.79331 138.39228 24759 ft 376 kts 263°
2026-05-08 04:24 35.79167 138.36046 25008 ft 379 kts 264°
2026-05-08 04:24 35.79235 138.32743 25314 ft 384 kts 271°
2026-05-08 04:24 35.79629 138.29520 25579 ft 389 kts 277°
2026-05-08 04:25 35.80360 138.26290 25873 ft 394 kts 284°
2026-05-08 04:25 35.81267 138.23092 26089 ft 397 kts 283°
2026-05-08 04:25 35.82154 138.19875 26380 ft 398 kts 283°
2026-05-08 04:25 35.83038 138.16633 26646 ft 400 kts 283°
2026-05-08 04:26 35.83920 138.13378 26940 ft 401 kts 283°
2026-05-08 04:26 35.84805 138.10109 27238 ft 403 kts 283°
2026-05-08 04:26 35.85696 138.06824 27513 ft 405 kts 283°
2026-05-08 04:26 35.86591 138.03522 27803 ft 407 kts 283°
2026-05-08 04:27 35.87409 138.00501 28059 ft 409 kts 283°
2026-05-08 04:27 35.88312 137.97157 28297 ft 412 kts 283°
2026-05-08 04:27 35.89215 137.93805 28535 ft 413 kts 283°
2026-05-08 04:27 35.89590 137.92413 28650 ft 414 kts 283°
2026-05-08 04:28 35.90505 137.89010 28848 ft 416 kts 283°
2026-05-08 04:28 35.91419 137.85610 29071 ft 418 kts 283°
2026-05-08 04:28 35.92336 137.82203 29375 ft 420 kts 283°
2026-05-08 04:28 35.93255 137.78777 29674 ft 421 kts 283°
2026-05-08 04:29 35.94175 137.75335 29851 ft 424 kts 283°
2026-05-08 04:29 35.95103 137.71864 30096 ft 426 kts 283°
2026-05-08 04:29 35.96029 137.68399 30450 ft 425 kts 283°
2026-05-08 04:29 35.96952 137.64936 30756 ft 425 kts 283°
2026-05-08 04:30 35.97878 137.61459 31004 ft 427 kts 283°
2026-05-08 04:30 35.98805 137.57976 31257 ft 428 kts 283°
2026-05-08 04:30 35.99732 137.54486 31527 ft 428 kts 282°
2026-05-08 04:30 36.00505 137.50948 31787 ft 425 kts 277°
2026-05-08 04:31 36.01014 137.47365 31957 ft 423 kts 273°
2026-05-08 04:31 36.01267 137.43749 32179 ft 422 kts 269°
2026-05-08 04:31 36.01286 137.40165 32399 ft 421 kts 266°
2026-05-08 04:31 36.01264 137.36539 32589 ft 422 kts 266°
2026-05-08 04:32 36.01262 137.32910 32702 ft 424 kts 267°
2026-05-08 04:32 36.01264 137.29265 32845 ft 425 kts 267°
2026-05-08 04:32 36.01264 137.25616 32949 ft 425 kts 267°
2026-05-08 04:32 36.01261 137.21961 33091 ft 426 kts 267°
2026-05-08 04:33 36.01255 137.18311 33256 ft 425 kts 267°
2026-05-08 04:33 36.01246 137.14654 33356 ft 426 kts 267°
2026-05-08 04:33 36.01237 137.10998 33474 ft 426 kts 267°
2026-05-08 04:33 36.01227 137.07345 33649 ft 425 kts 267°
2026-05-08 04:34 36.01214 137.03696 33785 ft 425 kts 267°
2026-05-08 04:34 36.01201 137.00048 33916 ft 424 kts 267°
2026-05-08 04:34 36.01191 136.96414 34328 ft 415 kts 265°
2026-05-08 04:34 36.01188 136.92927 34902 ft 398 kts 265°
2026-05-08 04:35 36.01174 136.89545 35295 ft 391 kts 265°
2026-05-08 04:35 36.01154 136.86247 35428 ft 391 kts 264°
2026-05-08 04:35 36.01111 136.79536 35608 ft 391 kts 265°
2026-05-08 04:36 36.01096 136.76182 35742 ft 390 kts 264°
2026-05-08 04:36 36.01082 136.72841 35821 ft 389 kts 264°
2026-05-08 04:36 36.01036 136.66147 35834 ft 389 kts 264°
2026-05-08 04:37 36.00986 136.59470 35832 ft 389 kts 264°
2026-05-08 04:37 36.00935 136.52791 35831 ft 390 kts 264°
2026-05-08 04:38 36.00883 136.46114 35840 ft 389 kts 264°
2026-05-08 04:38 36.00826 136.39417 35852 ft 390 kts 264°
2026-05-08 04:39 36.00767 136.33086 35853 ft 390 kts 264°
2026-05-08 04:39 36.00706 136.26426 35854 ft 388 kts 264°
2026-05-08 04:40 36.00638 136.19748 35855 ft 389 kts 264°
2026-05-08 04:40 36.00566 136.13077 35849 ft 388 kts 264°
2026-05-08 04:41 36.00492 136.06405 35836 ft 389 kts 264°
2026-05-08 04:41 36.00412 135.99731 35845 ft 389 kts 264°
2026-05-08 04:42 36.00330 135.93063 35843 ft 387 kts 264°
2026-05-08 04:42 36.00244 135.86414 35840 ft 387 kts 264°
2026-05-08 04:43 36.00156 135.79853 35838 ft 387 kts 264°
2026-05-08 04:43 36.00063 135.73209 35837 ft 387 kts 264°
2026-05-08 04:44 35.99966 135.66565 35845 ft 387 kts 264°
2026-05-08 04:44 35.99866 135.59928 35846 ft 387 kts 264°
2026-05-08 04:45 35.99762 135.53293 35846 ft 386 kts 264°
2026-05-08 04:45 35.99655 135.46665 35847 ft 386 kts 264°
2026-05-08 04:46 35.99544 135.40044 35847 ft 386 kts 264°
2026-05-08 04:46 35.99430 135.33473 35851 ft 385 kts 264°
2026-05-08 04:47 35.99315 135.26995 35851 ft 385 kts 264°
2026-05-08 04:47 35.99193 135.20397 35849 ft 384 kts 264°
2026-05-08 04:48 35.99068 135.13804 35847 ft 384 kts 263°
2026-05-08 04:48 35.98940 135.07221 35847 ft 384 kts 263°
2026-05-08 04:49 35.98808 135.00637 35845 ft 383 kts 263°
2026-05-08 04:49 35.98673 134.94057 35851 ft 383 kts 263°
2026-05-08 04:50 35.98534 134.87485 35850 ft 383 kts 263°
2026-05-08 04:50 35.98392 134.80906 35850 ft 383 kts 263°
2026-05-08 04:51 35.98247 134.74331 35854 ft 383 kts 263°
2026-05-08 04:51 35.98095 134.67760 35859 ft 383 kts 263°
2026-05-08 04:52 35.97941 134.61173 35853 ft 383 kts 263°
2026-05-08 04:52 35.97783 134.54592 35854 ft 384 kts 263°
2026-05-08 04:53 35.97622 134.48016 35867 ft 384 kts 263°
2026-05-08 04:53 35.97460 134.41541 35863 ft 384 kts 263°
2026-05-08 04:54 35.97291 134.34964 35874 ft 383 kts 263°
2026-05-08 04:54 35.97119 134.28385 35877 ft 383 kts 263°
2026-05-08 04:55 35.96944 134.21811 35884 ft 383 kts 263°
2026-05-08 04:55 35.96765 134.15251 35875 ft 383 kts 263°
2026-05-08 04:56 35.96585 134.08729 35876 ft 382 kts 263°
2026-05-08 04:56 35.96399 134.02185 35885 ft 381 kts 263°
2026-05-08 04:57 35.96213 133.95721 35891 ft 381 kts 263°
2026-05-08 04:57 35.96018 133.89196 35889 ft 380 kts 263°
2026-05-08 04:58 35.95819 133.82690 35885 ft 379 kts 263°
2026-05-08 04:58 35.95622 133.76189 35883 ft 378 kts 263°
2026-05-08 04:59 35.95422 133.69706 35885 ft 378 kts 263°
2026-05-08 04:59 35.95218 133.63228 35890 ft 377 kts 263°
2026-05-08 05:00 35.95044 133.57852 35888 ft 377 kts 263°
2026-05-08 05:00 35.94836 133.51483 35886 ft 376 kts 263°
2026-05-08 05:01 35.94621 133.45026 35891 ft 376 kts 263°
2026-05-08 05:01 35.94404 133.38587 35895 ft 376 kts 263°
2026-05-08 05:02 35.94182 133.32140 35896 ft 376 kts 263°
2026-05-08 05:02 35.93958 133.25702 35895 ft 375 kts 263°
2026-05-08 05:03 35.93732 133.19309 35898 ft 375 kts 263°
2026-05-08 05:03 35.93499 133.12837 35898 ft 375 kts 263°
2026-05-08 05:04 35.93265 133.06403 35900 ft 375 kts 263°
2026-05-08 05:04 35.93027 132.99981 35907 ft 375 kts 263°
2026-05-08 05:05 35.92785 132.93554 35911 ft 375 kts 263°
2026-05-08 05:05 35.92541 132.87129 35911 ft 375 kts 263°
2026-05-08 05:06 35.92293 132.80715 35912 ft 374 kts 263°
2026-05-08 05:06 35.92042 132.74300 35913 ft 374 kts 263°
2026-05-08 05:07 35.91788 132.67896 35919 ft 374 kts 263°
2026-05-08 05:07 35.91531 132.61494 35919 ft 373 kts 263°
2026-05-08 05:08 35.91272 132.55135 35921 ft 373 kts 263°
2026-05-08 05:08 35.91008 132.48753 35922 ft 372 kts 263°
2026-05-08 05:09 35.90741 132.42382 35925 ft 372 kts 263°
2026-05-08 05:09 35.90474 132.36060 35926 ft 371 kts 263°
2026-05-08 05:10 35.90064 132.26537 35924 ft 370 kts 263°
2026-05-08 05:11 35.89785 132.20154 35924 ft 370 kts 263°
2026-05-08 05:11 35.89507 132.13871 35923 ft 369 kts 263°
2026-05-08 05:12 35.89225 132.07556 35921 ft 369 kts 263°
2026-05-08 05:12 35.88939 132.01247 35919 ft 368 kts 263°
2026-05-08 05:13 35.88650 131.94941 35925 ft 368 kts 263°
2026-05-08 05:13 35.88359 131.88650 35924 ft 367 kts 263°
2026-05-08 05:14 35.88065 131.82365 35925 ft 367 kts 263°
2026-05-08 05:14 35.87767 131.76085 35925 ft 367 kts 264°
2026-05-08 05:15 35.87466 131.69808 35928 ft 366 kts 264°
2026-05-08 05:15 35.87163 131.63542 35932 ft 366 kts 264°
2026-05-08 05:16 35.86861 131.57365 35922 ft 366 kts 264°
2026-05-08 05:16 35.86552 131.51109 35930 ft 366 kts 264°
2026-05-08 05:17 35.86239 131.44851 35931 ft 365 kts 264°
2026-05-08 05:17 35.85924 131.38603 35933 ft 365 kts 264°
2026-05-08 05:18 35.85605 131.32354 35933 ft 365 kts 264°
2026-05-08 05:18 35.85283 131.26101 35921 ft 365 kts 264°
2026-05-08 05:19 35.84958 131.19856 35929 ft 365 kts 264°
2026-05-08 05:19 35.84630 131.13607 35931 ft 365 kts 264°
2026-05-08 05:20 35.84313 131.07632 35933 ft 365 kts 264°
2026-05-08 05:20 35.83978 131.01389 35934 ft 365 kts 264°
2026-05-08 05:21 35.83641 130.95153 35928 ft 365 kts 264°
2026-05-08 05:21 35.83301 130.88921 35938 ft 364 kts 264°
2026-05-08 05:22 35.82958 130.82688 35937 ft 364 kts 264°
2026-05-08 05:22 35.82614 130.76463 35934 ft 364 kts 264°
2026-05-08 05:23 35.82692 130.70220 35934 ft 366 kts 272°
2026-05-08 05:23 35.83424 130.64189 35939 ft 367 kts 275°
2026-05-08 05:24 35.84223 130.57971 35941 ft 367 kts 274°
2026-05-08 05:24 35.85008 130.51759 35943 ft 367 kts 274°
2026-05-08 05:25 35.85790 130.45554 35943 ft 366 kts 275°
2026-05-08 05:25 35.86568 130.39357 35944 ft 366 kts 275°
2026-05-08 05:26 35.87343 130.33167 35938 ft 365 kts 275°
2026-05-08 05:26 35.88112 130.26990 35938 ft 364 kts 275°
2026-05-08 05:27 35.88877 130.20818 35938 ft 364 kts 275°
2026-05-08 05:27 35.89637 130.14662 35943 ft 363 kts 275°
2026-05-08 05:28 35.90393 130.08508 35935 ft 362 kts 275°
2026-05-08 05:28 35.91145 130.02363 35934 ft 362 kts 275°
2026-05-08 05:29 35.91893 129.96225 35932 ft 362 kts 275°
2026-05-08 05:29 35.92638 129.90089 35934 ft 361 kts 275°
2026-05-08 05:30 35.93378 129.83957 35931 ft 361 kts 275°
2026-05-08 05:30 35.94115 129.77832 35932 ft 361 kts 275°
2026-05-08 05:31 35.94848 129.71706 35928 ft 361 kts 275°
2026-05-08 05:31 35.95578 129.65581 35926 ft 360 kts 275°
2026-05-08 05:32 35.96304 129.59463 35926 ft 360 kts 275°
2026-05-08 05:32 35.97065 129.53348 35923 ft 361 kts 277°
2026-05-08 05:33 35.98544 129.47414 35918 ft 368 kts 286°
2026-05-08 05:33 36.01014 129.41732 35920 ft 379 kts 295°
2026-05-08 05:34 36.04092 129.36451 35917 ft 382 kts 296°
2026-05-08 05:34 36.07181 129.31106 35911 ft 383 kts 296°
2026-05-08 05:35 36.10272 129.25735 35913 ft 384 kts 296°
2026-05-08 05:35 36.13368 129.20351 35921 ft 385 kts 296°
2026-05-08 05:36 36.16479 129.14934 35921 ft 387 kts 297°
2026-05-08 05:36 36.19601 129.09491 35930 ft 388 kts 297°
2026-05-08 05:37 36.22728 129.04031 35923 ft 389 kts 297°
2026-05-08 05:37 36.25854 128.98562 35924 ft 389 kts 297°
2026-05-08 05:38 36.28985 128.93077 35930 ft 390 kts 297°
2026-05-08 05:38 36.32115 128.87584 35932 ft 391 kts 297°
2026-05-08 05:39 36.35236 128.82097 35930 ft 391 kts 297°
2026-05-08 05:39 36.38375 128.76572 35928 ft 392 kts 297°
2026-05-08 05:40 36.41514 128.71036 35929 ft 393 kts 297°
2026-05-08 05:40 36.44656 128.65489 35932 ft 393 kts 297°
2026-05-08 05:41 36.47798 128.59931 35936 ft 393 kts 297°
2026-05-08 05:41 36.50935 128.54374 35932 ft 393 kts 297°
2026-05-08 05:42 36.54071 128.48807 35927 ft 393 kts 297°
2026-05-08 05:42 36.57202 128.43240 35920 ft 393 kts 297°
2026-05-08 05:43 36.60291 128.37739 35918 ft 393 kts 297°
2026-05-08 05:43 36.63421 128.32158 35919 ft 393 kts 298°
2026-05-08 05:44 36.66585 128.26591 35919 ft 395 kts 298°
2026-05-08 05:44 36.69770 128.21021 35920 ft 395 kts 298°
2026-05-08 05:45 36.72953 128.15431 35925 ft 396 kts 298°
2026-05-08 05:45 36.75598 128.10769 35930 ft 396 kts 298°
2026-05-08 05:46 36.78782 128.05151 35936 ft 397 kts 298°
2026-05-08 05:46 36.81964 127.99526 35940 ft 396 kts 298°
2026-05-08 05:47 36.85537 127.93199 35943 ft 396 kts 298°
2026-05-08 05:47 36.88187 127.88501 35946 ft 394 kts 298°
2026-05-08 05:48 36.91342 127.82894 35947 ft 396 kts 298°
2026-05-08 05:48 36.94513 127.77250 35947 ft 396 kts 298°
2026-05-08 05:49 36.97677 127.71623 35950 ft 396 kts 298°
2026-05-08 05:49 37.00839 127.65990 35948 ft 395 kts 298°
2026-05-08 05:50 37.03997 127.60351 35950 ft 396 kts 298°
2026-05-08 05:50 37.07147 127.54713 35942 ft 395 kts 298°
2026-05-08 05:51 37.10275 127.49101 35946 ft 396 kts 298°
2026-05-08 05:51 37.13349 127.43580 35956 ft 396 kts 298°
2026-05-08 05:52 37.16477 127.37950 35973 ft 397 kts 299°
2026-05-08 05:52 37.19630 127.32270 35987 ft 397 kts 299°
2026-05-08 05:53 37.22777 127.26590 35982 ft 397 kts 299°
2026-05-08 05:53 37.25925 127.20896 35986 ft 397 kts 299°
2026-05-08 05:54 37.29069 127.15202 35988 ft 398 kts 299°
2026-05-08 05:54 37.32214 127.09493 35993 ft 398 kts 299°
2026-05-08 05:55 37.35361 127.03776 35999 ft 397 kts 299°
2026-05-08 05:55 37.38314 126.98359 35988 ft 396 kts 297°
2026-05-08 05:56 37.40518 126.92115 35985 ft 389 kts 283°
2026-05-08 05:56 37.41340 126.85422 35993 ft 388 kts 272°
2026-05-08 05:57 37.41287 126.78631 35985 ft 388 kts 271°
2026-05-08 05:57 37.41265 126.71839 35989 ft 389 kts 271°
2026-05-08 05:58 37.41237 126.65035 36010 ft 389 kts 271°
2026-05-08 05:58 37.41200 126.58234 36019 ft 389 kts 271°
2026-05-08 05:59 37.41159 126.51434 36012 ft 389 kts 271°
2026-05-08 05:59 37.41115 126.44628 36019 ft 389 kts 271°
2026-05-08 06:00 37.41068 126.37826 36019 ft 389 kts 271°
2026-05-08 06:00 37.41020 126.31214 36014 ft 389 kts 271°
2026-05-08 06:01 37.40967 126.24412 36016 ft 389 kts 271°
2026-05-08 06:01 37.40908 126.17612 36020 ft 388 kts 271°
2026-05-08 06:02 37.40846 126.10865 36026 ft 389 kts 271°
2026-05-08 06:02 37.40781 126.04069 36020 ft 389 kts 271°
2026-05-08 06:03 37.40711 125.97275 36028 ft 388 kts 271°
2026-05-08 06:03 37.40638 125.90486 36028 ft 388 kts 271°
2026-05-08 06:04 37.40561 125.83703 36032 ft 388 kts 271°
2026-05-08 06:04 37.40480 125.76917 36031 ft 388 kts 271°
2026-05-08 06:05 37.40398 125.70420 36035 ft 388 kts 271°
2026-05-08 06:05 37.40310 125.63634 36037 ft 388 kts 271°
2026-05-08 06:06 37.40216 125.56850 36039 ft 388 kts 271°
2026-05-08 06:06 37.40119 125.50066 36040 ft 388 kts 271°
2026-05-08 06:07 37.40018 125.43281 36046 ft 388 kts 271°
2026-05-08 06:07 37.39914 125.36497 36048 ft 388 kts 271°
2026-05-08 06:08 37.39805 125.29708 36054 ft 388 kts 271°
2026-05-08 06:08 37.39692 125.22915 36058 ft 388 kts 271°
2026-05-08 06:09 37.39576 125.16122 36058 ft 389 kts 271°
2026-05-08 06:09 37.39463 125.09636 36057 ft 389 kts 271°
2026-05-08 06:10 37.39344 125.03029 36063 ft 389 kts 271°
2026-05-08 06:10 37.39217 124.96236 36067 ft 389 kts 271°
2026-05-08 06:11 37.39087 124.89444 36070 ft 389 kts 271°
2026-05-08 06:11 37.38953 124.82649 36068 ft 389 kts 271°
2026-05-08 06:12 37.38817 124.76017 36072 ft 389 kts 271°
2026-05-08 06:12 37.38673 124.69221 36076 ft 389 kts 271°
2026-05-08 06:13 37.38526 124.62419 36075 ft 389 kts 271°
2026-05-08 06:13 37.38374 124.55619 36079 ft 389 kts 271°
2026-05-08 06:14 37.38210 124.48820 36079 ft 390 kts 269°
2026-05-08 06:14 37.37242 124.42086 36078 ft 396 kts 258°
2026-05-08 06:15 37.35045 124.35766 36081 ft 406 kts 246°
2026-05-08 06:15 37.31984 124.29711 36079 ft 408 kts 245°
2026-05-08 06:16 37.28963 124.23685 36076 ft 408 kts 245°
2026-05-08 06:16 37.25958 124.17700 36088 ft 408 kts 245°
2026-05-08 06:17 37.21363 124.08717 36086 ft 409 kts 244°
2026-05-08 06:17 37.18177 124.02805 36092 ft 409 kts 244°
2026-05-08 06:18 37.15024 123.96888 36093 ft 407 kts 245°
2026-05-08 06:18 37.11965 123.90916 36096 ft 407 kts 245°
2026-05-08 06:19 37.08906 123.84955 36099 ft 407 kts 245°
2026-05-08 06:19 37.05838 123.79015 36103 ft 406 kts 245°
2026-05-08 06:20 37.02771 123.73094 36110 ft 405 kts 245°
2026-05-08 06:20 36.99715 123.67204 36110 ft 404 kts 245°
2026-05-08 06:21 36.96660 123.61326 36109 ft 403 kts 245°
2026-05-08 06:21 36.93609 123.55465 36112 ft 401 kts 245°
2026-05-08 06:22 36.90568 123.49633 36112 ft 400 kts 245°
2026-05-08 06:22 36.87535 123.43812 36104 ft 397 kts 246°
2026-05-08 06:23 36.85410 123.37626 36106 ft 382 kts 261°
2026-05-08 06:23 36.84829 123.31121 36106 ft 375 kts 274°
2026-05-08 06:24 36.85688 123.24742 36102 ft 374 kts 286°
2026-05-08 06:24 36.87238 123.18537 36101 ft 374 kts 285°
2026-05-08 06:25 36.88742 123.12315 36102 ft 374 kts 285°
2026-05-08 06:25 36.90226 123.06134 36101 ft 375 kts 285°
2026-05-08 06:26 36.91721 122.99898 36100 ft 375 kts 285°
2026-05-08 06:26 36.93215 122.93657 36099 ft 375 kts 285°
2026-05-08 06:27 36.94706 122.87411 36102 ft 375 kts 285°
2026-05-08 06:27 36.96194 122.81160 36109 ft 375 kts 285°
2026-05-08 06:28 36.97679 122.74905 36102 ft 375 kts 285°
2026-05-08 06:28 36.99162 122.68645 36106 ft 376 kts 285°
2026-05-08 06:29 37.00643 122.62376 36107 ft 376 kts 285°
2026-05-08 06:29 37.02120 122.56107 36101 ft 376 kts 285°
2026-05-08 06:30 37.03594 122.49836 36109 ft 376 kts 285°
2026-05-08 06:30 37.05058 122.43590 36107 ft 376 kts 285°
2026-05-08 06:31 37.06652 122.37358 36099 ft 377 kts 291°
2026-05-08 06:31 37.09409 122.31729 36097 ft 385 kts 304°
2026-05-08 06:32 37.13426 122.27144 36102 ft 397 kts 316°
2026-05-08 06:32 37.16726 122.23293 36099 ft 386 kts 303°
2026-05-08 06:33 37.19530 122.17663 36100 ft 379 kts 291°
2026-05-08 06:33 37.21243 122.11438 36105 ft 378 kts 287°
2026-05-08 06:34 37.22866 122.05165 36104 ft 379 kts 287°
2026-05-08 06:34 37.24496 121.98877 36103 ft 379 kts 287°
2026-05-08 06:35 37.26121 121.92575 36111 ft 379 kts 287°
2026-05-08 06:35 37.27741 121.86264 36108 ft 380 kts 287°
2026-05-08 06:36 37.29361 121.79943 36111 ft 381 kts 287°
2026-05-08 06:36 37.30979 121.73611 36113 ft 381 kts 287°
2026-05-08 06:37 37.32506 121.67623 36111 ft 382 kts 287°
2026-05-08 06:37 37.34119 121.61271 36111 ft 382 kts 287°
2026-05-08 06:38 37.35733 121.54906 36110 ft 382 kts 287°
2026-05-08 06:38 37.37346 121.48532 36110 ft 383 kts 287°
2026-05-08 06:39 37.38954 121.42156 36111 ft 383 kts 287°
2026-05-08 06:39 37.40559 121.35779 36107 ft 382 kts 287°
2026-05-08 06:40 37.42150 121.29441 36104 ft 382 kts 286°
2026-05-08 06:40 37.43746 121.23067 36103 ft 382 kts 286°
2026-05-08 06:41 37.45401 121.16710 36107 ft 383 kts 290°
2026-05-08 06:41 37.47416 121.10504 36107 ft 383 kts 290°
2026-05-08 06:42 37.49419 121.04284 36108 ft 383 kts 290°
2026-05-08 06:42 37.51342 120.98284 36108 ft 383 kts 290°
2026-05-08 06:43 37.53333 120.92055 36110 ft 384 kts 290°
2026-05-08 06:43 37.55325 120.85815 36116 ft 384 kts 290°
2026-05-08 06:44 37.57314 120.79570 36117 ft 384 kts 290°
2026-05-08 06:44 37.59310 120.73308 36113 ft 385 kts 290°
2026-05-08 06:45 37.61368 120.67070 36118 ft 385 kts 290°
2026-05-08 06:45 37.63431 120.60824 36124 ft 386 kts 290°
2026-05-08 06:46 37.65538 120.54595 36117 ft 387 kts 294°
2026-05-08 06:46 37.68181 120.48650 36119 ft 389 kts 297°
2026-05-08 06:47 37.70871 120.42766 36122 ft 390 kts 297°
2026-05-08 06:47 37.73494 120.36998 36119 ft 391 kts 297°
2026-05-08 06:48 37.76202 120.31037 36119 ft 391 kts 297°
2026-05-08 06:48 37.78912 120.25068 36119 ft 392 kts 297°
2026-05-08 06:49 37.81625 120.19079 36120 ft 393 kts 297°
2026-05-08 06:49 37.84341 120.13073 36114 ft 394 kts 297°
2026-05-08 06:50 37.87057 120.07055 36111 ft 394 kts 297°
2026-05-08 06:50 37.89775 120.01022 36112 ft 395 kts 297°
2026-05-08 06:51 37.92497 119.94969 36112 ft 395 kts 297°
2026-05-08 06:51 37.95217 119.88909 36111 ft 396 kts 297°
2026-05-08 06:52 37.97936 119.82838 36112 ft 396 kts 297°
2026-05-08 06:52 38.00638 119.76795 36106 ft 397 kts 297°
2026-05-08 06:53 38.03341 119.70737 36108 ft 397 kts 297°
2026-05-08 06:53 38.06042 119.64675 36109 ft 397 kts 297°
2026-05-08 06:54 38.08758 119.58566 36104 ft 398 kts 297°
2026-05-08 06:54 38.11378 119.52390 36103 ft 397 kts 293°
2026-05-08 06:55 38.13495 119.45924 36099 ft 396 kts 291°
2026-05-08 06:55 38.15607 119.39456 36097 ft 397 kts 291°
2026-05-08 06:56 38.17720 119.32978 36096 ft 397 kts 291°
2026-05-08 06:56 38.19824 119.26498 36096 ft 397 kts 291°
2026-05-08 06:57 38.21926 119.20005 36093 ft 397 kts 291°
2026-05-08 06:57 38.24025 119.13505 36091 ft 397 kts 291°
2026-05-08 06:58 38.26120 119.07003 36087 ft 397 kts 291°
2026-05-08 06:58 38.28212 119.00498 36087 ft 397 kts 291°
2026-05-08 06:59 38.30300 118.93987 36088 ft 397 kts 291°
2026-05-08 06:59 38.32387 118.87466 36083 ft 398 kts 291°
2026-05-08 07:00 38.34470 118.80941 36082 ft 398 kts 291°
2026-05-08 07:00 38.36551 118.74411 36076 ft 398 kts 291°
2026-05-08 07:01 38.38639 118.67880 36076 ft 398 kts 291°
2026-05-08 07:01 38.40724 118.61349 36077 ft 398 kts 291°
2026-05-08 07:02 38.42805 118.54812 36074 ft 398 kts 291°
2026-05-08 07:02 38.44886 118.48261 36071 ft 398 kts 291°
2026-05-08 07:03 38.46962 118.41707 36067 ft 399 kts 291°
2026-05-08 07:03 38.49035 118.35143 36066 ft 399 kts 291°
2026-05-08 07:04 38.51090 118.28620 36060 ft 399 kts 291°
2026-05-08 07:04 38.53158 118.22039 36060 ft 399 kts 291°
2026-05-08 07:05 38.55222 118.15456 36054 ft 400 kts 291°
2026-05-08 07:05 38.57302 118.08870 36054 ft 400 kts 293°
2026-05-08 07:06 38.59933 118.02760 36047 ft 402 kts 302°
2026-05-08 07:06 38.63443 117.97157 36049 ft 406 kts 310°
2026-05-08 07:07 38.67377 117.91961 36043 ft 406 kts 310°
2026-05-08 07:07 38.71283 117.86731 36039 ft 407 kts 310°
2026-05-08 07:08 38.75194 117.81488 36037 ft 407 kts 310°
2026-05-08 07:08 38.79108 117.76238 36038 ft 408 kts 310°
2026-05-08 07:09 38.83021 117.70981 36034 ft 408 kts 310°
2026-05-08 07:09 38.86939 117.65710 36030 ft 408 kts 310°
2026-05-08 07:10 38.90857 117.60427 36030 ft 409 kts 310°
2026-05-08 07:10 38.94775 117.55137 36027 ft 409 kts 310°
2026-05-08 07:11 38.98692 117.49839 36023 ft 409 kts 310°
2026-05-08 07:11 39.02610 117.44530 36024 ft 409 kts 310°
2026-05-08 07:12 39.06105 117.39056 36022 ft 405 kts 300°
2026-05-08 07:12 39.08398 117.32469 36019 ft 405 kts 287°
2026-05-08 07:13 39.09467 117.25351 36017 ft 406 kts 281°
2026-05-08 07:13 39.10422 117.18192 36017 ft 406 kts 281°
2026-05-08 07:14 39.11382 117.11029 36013 ft 406 kts 281°